FW9031 Weather Reports


time (UTC)temp
C
wind
direction
speed
KPH
gust
KPH
rain 1hr
cm
rain 24hr
cm
rain mn
cm
humidity
%
barometer
mb
20260508071555 3 0 0.0 0.0 0.00 0.00 0.00 69 1006.6
20260508070058 4 0 0.0 0.0 0.00 0.00 0.00 69 1006.7
20260508064556 4 0 0.0 0.0 0.00 0.00 0.00 70 1006.8
20260508063100 4 0 0.0 1.6 0.00 0.00 0.00 66 1006.8
20260508061557 5 0 0.0 0.0 0.00 0.00 0.00 65 1007.0
20260508060112 5 0 0.0 0.0 0.00 0.00 0.00 65 1007.0
20260508054636 5 0 0.0 1.6 0.00 0.03 0.00 64 1007.2
20260508053052 5 0 0.0 0.0 0.00 0.03 0.00 61 1007.4
20260508051555 5 0 0.0 0.0 0.00 0.03 0.00 60 1007.5
20260508050057 6 0 0.0 0.0 0.00 0.03 0.00 59 1007.6
20260508044552 6 178 0.0 1.6 0.00 0.41 0.00 58 1007.6
20260508043058 6 0 0.0 1.6 0.00 0.41 0.00 58 1007.6
20260508041553 6 0 0.0 0.0 0.00 0.41 0.00 56 1007.8
20260508040056 7 0 0.0 0.0 0.00 0.41 0.00 56 1007.7
20260508034556 7 0 0.0 1.6 0.00 0.46 0.41 54 1007.8
20260508033053 7 0 0.0 0.0 0.00 0.46 0.41 52 1007.8
20260508031601 7 0 0.0 3.2 0.00 0.46 0.41 52 1007.8
20260508030104 7 0 0.0 1.6 0.00 0.46 0.41 53 1007.7
20260508024604 7 0 0.0 3.2 0.00 0.51 0.41 51 1007.5
20260508023052 7 0 0.0 1.6 0.00 0.51 0.41 50 1007.7
20260508021558 8 0 0.0 4.8 0.00 0.51 0.41 51 1007.6
20260508020104 7 178 0.0 9.7 0.00 0.51 0.41 52 1007.3
20260508014553 7 0 0.0 0.0 0.00 0.66 0.41 55 1007.5
20260508013053 8 0 0.0 0.0 0.00 0.66 0.41 55 1007.6
20260508011554 8 0 0.0 0.0 0.00 0.66 0.41 53 1007.5
20260508010053 8 0 0.0 0.0 0.00 0.66 0.41 54 1007.3
20260508004553 9 0 0.0 0.0 0.00 0.66 0.41 53 1007.1
20260508003053 10 0 0.0 3.2 0.00 0.66 0.41 51 1006.8
20260508001553 10 0 0.0 3.2 0.00 0.66 0.41 49 1006.7
20260508000051 11 0 0.0 8.0 0.00 0.66 0.41 46 1006.4
20260507234556 11 0 1.6 4.8 0.00 0.66 0.41 43 1006.1
20260507233052 12 0 0.0 4.8 0.00 0.66 0.41 42 1005.9
20260507231553 12 0 1.6 11.3 0.00 0.66 0.41 42 1005.6
20260507230054 12 0 0.0 3.2 0.00 0.66 0.41 42 1005.3
20260507224553 13 178 1.6 11.3 0.00 0.71 0.41 41 1005.1
20260507223056 13 178 0.0 8.0 0.00 0.71 0.41 39 1004.8
20260507221554 14 0 1.6 11.3 0.00 0.71 0.41 37 1004.6
20260507220055 14 0 0.0 9.7 0.00 0.71 0.41 41 1004.5
20260507214551 13 178 1.6 8.0 0.00 0.81 0.41 39 1004.4
20260507213053 15 178 1.6 4.8 0.00 0.81 0.41 39 1004.3
20260507211555 15 178 1.6 9.7 0.00 0.81 0.41 38 1004.2
20260507210101 16 178 1.6 9.7 0.00 0.81 0.41 37 1003.9
20260507204555 16 178 1.6 8.0 0.00 1.04 0.41 35 1003.8
20260507203058 17 0 1.6 11.3 0.00 1.04 0.41 38 1003.7
20260507201552 17 178 1.6 9.7 0.00 1.04 0.41 37 1003.7
20260507200053 17 178 0.0 9.7 0.00 1.04 0.41 40 1003.7
20260507194552 17 178 1.6 9.7 0.00 1.63 0.41 45 1003.9
20260507193049 16 178 3.2 11.3 0.00 1.63 0.41 48 1003.8
20260507191553 16 0 1.6 8.0 0.00 1.63 0.41 51 1003.8
20260507190052 17 178 3.2 11.3 0.00 1.63 0.41 47 1003.8
20260507184552 17 178 0.0 8.0 0.00 1.80 0.41 49 1003.7
20260507183051 17 178 1.6 9.7 0.00 1.80 0.41 45 1003.8
20260507181555 17 178 3.2 11.3 0.00 1.80 0.41 48 1003.8
20260507180100 16 178 0.0 11.3 0.00 1.80 0.41 49 1004.1
20260507174607 17 178 1.6 9.7 0.00 1.80 0.41 49 1004.3
20260507173054 17 178 0.0 9.7 0.00 1.80 0.41 49 1004.4
20260507171605 16 178 0.0 4.8 0.00 1.80 0.41 52 1004.6
20260507170053 16 178 0.0 4.8 0.00 1.80 0.41 52 1004.8
20260507164552 16 178 0.0 4.8 0.00 1.80 0.41 49 1004.7
20260507163100 17 178 1.6 4.8 0.00 1.80 0.41 51 1004.9
20260507161600 16 0 0.0 3.2 0.00 1.80 0.41 58 1005.1
20260507160055 16 178 0.0 3.2 0.00 1.80 0.41 55 1005.4
20260507154556 16 178 0.0 8.0 0.00 1.80 0.41 56 1005.6
20260507153102 16 178 0.0 8.0 0.00 1.80 0.41 57 1005.7
20260507151555 16 178 0.0 4.8 0.00 1.80 0.41 58 1005.7
20260507150057 16 178 3.2 8.0 0.00 1.80 0.41 60 1005.9
20260507144554 15 0 1.6 8.0 0.00 1.80 0.41 60 1006.0
20260507143054 15 178 1.6 8.0 0.00 1.80 0.41 61 1006.2
20260507141552 15 178 1.6 9.7 0.00 1.80 0.41 65 1006.3
20260507140106 15 178 1.6 4.8 0.00 1.80 0.41 64 1006.5
20260507134557 15 178 0.0 4.8 0.00 1.80 0.41 64 1006.6
20260507133104 13 178 1.6 4.8 0.00 1.80 0.41 68 1006.5
20260507131553 13 0 0.0 8.0 0.00 1.80 0.41 71 1006.5
20260507130105 13 178 0.0 3.2 0.00 1.80 0.41 71 1006.6
20260507124629 12 0 1.6 3.2 0.00 1.80 0.41 73 1006.8
20260507123050 12 0 0.0 4.8 0.00 1.80 0.41 74 1006.7
20260507121554 12 178 0.0 3.2 0.00 1.80 0.41 77 1006.8
20260507120052 11 178 1.6 3.2 0.00 1.80 0.41 78 1006.9
20260507114609 11 0 0.0 1.6 0.00 1.80 0.41 82 1007.0
20260507113056 9 178 0.0 1.6 0.00 1.80 0.41 86 1006.9
20260507111555 8 0 0.0 1.6 0.00 1.80 0.41 90 1006.9
20260507110054 8 0 0.0 0.0 0.00 1.80 0.41 93 1007.0
20260507104555 7 0 0.0 1.6 0.00 1.80 0.41 93 1007.3
20260507103054 7 0 0.0 1.6 0.00 1.80 0.41 94 1006.9
20260507101557 7 0 0.0 0.0 0.00 1.80 0.41 95 1007.1
20260507100056 7 0 0.0 0.0 0.00 1.80 0.41 95 1006.4
20260507094557 7 0 0.0 0.0 0.00 1.80 0.41 94 1006.1
20260507093052 7 0 0.0 0.0 0.00 1.80 0.41 95 1006.5
20260507091600 7 0 0.0 0.0 0.00 1.80 0.41 95 1006.5
20260507090051 7 0 0.0 0.0 0.00 1.80 0.41 95 1006.6
20260507084600 7 0 0.0 0.0 0.00 1.80 0.41 95 1006.6
20260507083056 8 0 0.0 0.0 0.00 1.80 0.41 95 1006.2
20260507081555 8 0 0.0 0.0 0.00 1.80 0.41 95 1006.2
20260507080051 8 0 0.0 1.6 0.00 1.80 0.41 95 1006.0
20260507074606 8 0 0.0 0.0 0.00 1.80 0.41 96 1006.2
20260507073054 8 0 0.0 0.0 0.00 1.80 0.41 95 1006.3